Back to catalog

SL-8 R/B

AlivePO
NORAD 13003·ROCKET BODY·🇷🇺 Russia

Launched Dec 17, 1981 from Plesetsk Cosmodrome

Loading…

Next Passes (next 24 hours)

TLE

FreshSource: Space-Track

Epoch: Sep 14, 2026, 18:37 UTC

1 13003U 81120G   26257.77624991 -.00000058  00000-0 -91058-3 0  9997
2 13003  82.9481 263.2785 0082395  14.4717 158.5775 11.91543301946088

Track SL-8 R/B in real time with AllMySat

Download on the App Store